Flag for Canada Weather past 2 weeks in Edmonton, Alberta, Canada

Now
62 °F

Refreshingly cool.


Feels Like: 62 °F
Forecast: 43 / 77 °F
Wind: 12 mph from South

Location: Edmonton Municipal

Current Time: Apr 27, 2015 at 8:30:22 PM

Latest Report: Apr 27, 2015 at 8:00 PM


Visibility: N/A

Pressure: 30.07 "Hg

Humidity: 27%

Dew point: 27 °F

Location of EdmontonLocation

Historic Weather in Edmonton — Graph

°F

Edmonton temperature yesterday

Maximum temperature yesterday: 50 °F (at 3:00 PM)
Minimum temperature yesterday: 27 °F (at 6:00 AM)
Average temperature yesterday: 39 °F

Past Weeks' High & Low Weather Summary

 TemperatureHumidityPressure
High72 °F (Apr 22, 3:00 PM)100% (Apr 24, 6:00 AM)30.34 "Hg (Apr 24, 6:00 AM)
Low27 °F (Apr 26, 6:00 AM)15% (Apr 13, 4:00 PM)29.56 "Hg (Apr 22, 7:00 PM)
Average46 °F46%29.98 "Hg
* Reported Apr 12 7:00 PM — Apr 27 7:00 PM, Edmonton, Weather by CustomWeather, © 2015

Note: Actual official high and low records may vary slightly from our data, if they occured in-between our weather recording intervals... More about our weather records

Advertising

Edmonton weather history for previous 24 hours

 ConditionsComfort  
Time TempWeatherWind HumidityBarometerVisibility
7:00 PM
Mon, Apr 27
65 °FMild.12 mph22%30.07 "HgN/A
6:00 PM65 °FMild.12 mph22%30.07 "HgN/A
5:00 PM67 °FMild.10 mph19%30.07 "HgN/A
4:00 PM67 °FMild.12 mph17%30.08 "HgN/A
3:00 PM65 °FMild.8 mph19%30.09 "HgN/A
2:00 PM64 °FMild.7 mph19%30.11 "HgN/A
1:00 PM63 °FMild.7 mph20%30.11 "HgN/A
12:00 PM60 °FRefreshingly cool.5 mph27%30.14 "HgN/A
11:00 AM54 °FCool.3 mph38%30.16 "HgN/A
10:00 AM48 °FCool.3 mph50%30.17 "HgN/A
9:00 AM42 °FQuite cool.5 mph62%30.16 "HgN/A
8:00 AM37 °FChilly.6 mph71%30.16 "HgN/A
7:00 AM35 °FChilly.3 mph75%30.14 "HgN/A
6:00 AM35 °FChilly.5 mph75%30.14 "HgN/A
5:00 AM36 °FChilly.7 mph73%30.13 "HgN/A
4:00 AM39 °FChilly.9 mph68%30.11 "HgN/A
3:00 AM40 °FQuite cool.10 mph63%30.11 "HgN/A
2:00 AM40 °FQuite cool.9 mph64%30.11 "HgN/A
1:00 AM40 °FChilly.9 mph69%30.13 "HgN/A
12:00 AM38 °FChilly.7 mph67%30.15 "HgN/A
11:00 PM
Sun, Apr 26
38 °FChilly.8 mph64%30.16 "HgN/A
10:00 PM38 °FChilly.7 mph65%30.17 "HgN/A
9:00 PM40 °FQuite cool.10 mph55%30.18 "HgN/A
8:00 PM45 °FCool.12 mph41%30.18 "HgN/A
Weather by CustomWeather, © 2015

See weather overviewHow to use our weather pages